EW7554 Weather Reports


Display with metric or nautical units.
time (UTC)temp
F
wind
direction
speed
MPH
gust
MPH
rain 1hr
in
rain 24hr
in
rain mn
in
humidity
%
barometer
mb
20260903084542 74 97 2.0 5.0 0.00 0.00 0.00 83 1009.1
20260903083028 74 66 2.0 4.0 0.00 0.00 0.00 82 1009.2
20260903081527 74 41 2.0 4.0 0.00 0.00 0.00 82 1009.4
20260903080026 74 70 2.0 6.0 0.00 0.00 0.00 82 1009.4
20260903074523 75 65 1.0 5.0 0.00 0.03 0.00 81 1009.6
20260903073024 75 102 2.0 6.0 0.00 0.03 0.00 81 1009.7
20260903071524 75 48 1.0 4.0 0.00 0.03 0.00 80 1009.8
20260903070019 75 48 1.0 5.0 0.00 0.03 0.00 80 1009.8
20260903064517 75 58 2.0 4.0 0.00 0.04 0.00 79 1009.9
20260903063015 76 66 1.0 4.0 0.00 0.04 0.00 79 1010.0
20260903061516 76 60 1.0 3.0 0.00 0.04 0.00 78 1010.0
20260903060013 76 61 2.0 4.0 0.00 0.04 0.00 78 1010.0
20260903054510 77 74 1.0 4.0 0.00 0.04 0.00 77 1010.1
20260903053005 77 69 1.0 4.0 0.00 0.04 0.00 77 1010.0
20260903051504 77 67 2.0 6.0 0.00 0.04 0.00 76 1010.0
20260903050105 78 59 1.0 4.0 0.00 0.04 0.00 75 1010.1
20260903044603 78 78 1.0 5.0 0.00 0.04 0.04 75 1010.2
20260903043111 78 74 3.0 5.0 0.00 0.04 0.04 74 1010.3
20260903041558 78 66 2.0 5.0 0.00 0.04 0.04 73 1010.5
20260903040058 79 34 1.0 5.0 0.00 0.04 0.04 72 1010.5
20260903034607 79 50 1.0 4.0 0.00 0.04 0.04 72 1010.5
20260903033057 79 53 1.0 4.0 0.00 0.04 0.04 71 1010.5
20260903031616 80 55 1.0 4.0 0.00 0.04 0.04 70 1010.6
20260903030056 81 80 1.0 3.0 0.00 0.04 0.04 68 1010.5
20260903024555 81 73 1.0 3.0 0.00 0.04 0.04 66 1010.5
20260903023055 82 68 0.0 2.0 0.00 0.04 0.04 65 1010.5
20260903021555 82 61 1.0 3.0 0.00 0.04 0.04 63 1010.4
20260903020053 83 153 1.0 2.0 0.00 0.04 0.04 61 1010.4
20260903014559 83 155 0.0 1.0 0.00 0.04 0.04 61 1010.3
20260903013052 83 155 0.0 2.0 0.00 0.04 0.04 61 1010.2
20260903011551 84 155 0.0 0.0 0.00 0.04 0.04 60 1010.2
20260903010050 85 155 0.0 1.0 0.00 0.04 0.04 60 1009.8
20260903004549 86 155 0.0 1.0 0.00 0.04 0.04 57 1009.8
20260903003050 86 156 0.0 1.0 0.00 0.04 0.04 56 1009.9
20260903001551 86 156 0.0 3.0 0.00 0.04 0.04 56 1009.8
20260903000048 86 155 1.0 3.0 0.00 0.04 0.04 56 1010.0
20260902234547 87 155 1.0 6.0 0.00 0.04 0.04 55 1009.8
20260902233046 87 175 2.0 5.0 0.00 0.04 0.04 54 1009.9
20260902231545 87 151 2.0 7.0 0.00 0.04 0.04 54 1010.0
20260902230043 87 146 5.0 10.0 0.00 0.04 0.04 54 1010.1
20260902224544 88 144 2.0 6.0 0.00 0.04 0.04 53 1010.0
20260902223043 88 134 3.0 6.0 0.00 0.04 0.04 52 1010.0
20260902221543 88 149 1.0 7.0 0.00 0.04 0.04 53 1010.0
20260902220046 90 155 3.0 7.0 0.00 0.04 0.04 50 1010.1
20260902214539 89 107 1.0 7.0 0.00 0.04 0.04 50 1010.1
20260902213038 89 63 2.0 5.0 0.00 0.04 0.04 51 1010.3
20260902211543 90 94 1.0 4.0 0.00 0.04 0.04 50 1010.4
20260902204539 88 345 2.0 6.0 0.00 0.04 0.04 53 1010.4
20260902203030 88 116 1.0 5.0 0.00 0.04 0.04 53 1010.4
20260902201533 87 75 2.0 7.0 0.00 0.04 0.04 55 1010.7
20260902200027 87 186 2.0 6.0 0.00 0.04 0.04 54 1011.0
20260902194532 86 152 2.0 5.0 0.00 0.04 0.04 54 1011.2
20260902193023 87 150 1.0 5.0 0.00 0.04 0.04 53 1011.3
20260902191520 86 149 1.0 4.0 0.00 0.04 0.04 55 1011.5
20260902190019 84 162 4.0 10.0 0.00 0.04 0.04 55 1011.4
20260902184514 84 195 3.0 5.0 0.00 0.04 0.04 56 1011.3
20260902183012 84 9 2.0 6.0 0.00 0.04 0.04 56 1011.4
20260902181510 84 34 2.0 5.0 0.00 0.04 0.04 57 1011.5
20260902180008 84 75 2.0 5.0 0.00 0.04 0.04 57 1011.8
20260902174505 82 58 1.0 5.0 0.00 0.04 0.04 60 1011.9
20260902173002 82 34 1.0 4.0 0.00 0.04 0.04 62 1012.3
20260902171600 80 138 2.0 4.0 0.00 0.04 0.04 63 1012.6
20260902170101 77 170 3.0 6.0 0.00 0.04 0.04 66 1013.0
20260902164556 78 161 2.0 6.0 0.00 0.04 0.04 65 1012.6
20260902163056 79 176 2.0 5.0 0.00 0.04 0.04 64 1012.5
20260902161556 79 53 1.0 4.0 0.00 0.04 0.04 64 1012.5
20260902160054 77 34 1.0 5.0 0.00 0.04 0.04 66 1012.4
20260902154550 77 108 1.0 6.0 0.00 0.04 0.04 67 1012.2
20260902153045 76 69 2.0 5.0 0.00 0.04 0.04 68 1012.1
20260902151546 75 66 3.0 6.0 0.00 0.04 0.04 71 1012.1
20260902150037 74 178 4.0 7.0 0.00 0.04 0.04 71 1012.1
20260902144537 73 13 2.0 6.0 0.00 0.04 0.04 72 1012.1
20260902143033 72 156 2.0 4.0 0.00 0.04 0.04 74 1012.4
20260902141526 72 124 2.0 5.0 0.00 0.04 0.04 75 1012.5
20260902140022 70 207 1.0 6.0 0.00 0.04 0.04 77 1012.6
20260902134518 69 74 1.0 8.0 0.00 0.04 0.04 80 1012.4
20260902133017 69 48 3.0 5.0 0.00 0.04 0.04 79 1012.4
20260902131515 69 26 3.0 6.0 0.00 0.04 0.04 79 1012.5
20260902130013 68 72 1.0 5.0 0.00 0.04 0.04 82 1012.2
20260902124511 67 24 0.0 4.0 0.00 0.04 0.04 85 1012.4
20260902123009 66 30 1.0 4.0 0.00 0.04 0.04 86 1012.4
20260902121506 66 32 2.0 4.0 0.00 0.04 0.04 87 1012.1
20260902120005 66 61 1.0 4.0 0.00 0.04 0.04 87 1012.4
20260902114502 65 130 0.0 2.0 0.00 0.04 0.04 87 1012.4
20260902113001 66 130 0.0 3.0 0.00 0.04 0.04 86 1012.3
20260902111500 66 136 2.0 8.0 0.00 0.04 0.04 86 1012.9
20260902110107 66 140 0.0 3.0 0.00 0.04 0.04 85 1013.0
20260902104558 66 155 1.0 2.0 0.00 0.04 0.04 84 1012.9
20260902103057 66 157 1.0 3.0 0.00 0.04 0.04 84 1013.1
20260902101557 66 157 0.0 5.0 0.00 0.04 0.04 84 1013.2
20260902100109 66 86 1.0 3.0 0.00 0.04 0.04 83 1013.0
20260902094612 66 85 1.0 3.0 0.00 0.04 0.04 82 1012.4
20260902093055 66 162 3.0 7.0 0.00 0.04 0.04 82 1012.0
20260902091600 66 163 6.0 10.0 0.00 0.04 0.04 83 1012.0
20260902090052 67 170 6.0 10.0 0.00 0.04 0.04 81 1011.5